Location: Anuling
(14.1239°N, 120.8922°E)
Time: 00:34:07
(UTC+00:00)

GPS 2-17 Rocket1 - Pass Details

Date: 17 April 2026
Orbit: 544 x 613 km, 20.3° (Epoch: 19 May)

Event Time Altitude Azimuth Distance (km) Brightness Sun altitude
Rises 10:55:06 0° 287° (WNW) 2,848 8.7 -11.4°
Reaches altitude 10° 10:57:27 10° 289° (WNW) 1,949 7.2 -12.0°
Maximum altitude 11:02:01 72° 14° (NNE) 639 3.1 -13.1°
Enters shadow 11:05:00 21° 95° (E) 1,364 4.2 -13.8°
